Home   Weather   Warsaw   Past weeks

Flag for Poland Past Weather in Warsaw, Poland — Yesterday and Last 2 Weeks

Now
72 °F

Scattered clouds.


Feels Like: 77 °F
Forecast: 54 / 67 °F
Wind: 10 mph from West

Location: Warsaw Okecie Airport

Current Time: Sep 30, 2016 at 2:00:17 PM

Latest Report: Sep 30, 2016 at 1:00 PM


Visibility: N/A

Pressure: 29.95 "Hg

Humidity: 53%

Dew Point: 54 °F

Location of WarsawLocation

Past Weather in Warsaw — Graph

°F

Warsaw Temperature Yesterday

Maximum temperature yesterday: 75 °F (at 3:30 PM)
Minimum temperature yesterday: 57 °F (at 4:00 AM)
Average temperature yesterday: 65 °F

High & Low Weather Summary for the Past Weeks

 TemperatureHumidityPressure
High79 °F (Sep 16, 3:30 PM)100% (Sep 22, 2:00 AM)30.36 "Hg (Sep 22, 2:00 AM)
Low36 °F (Sep 28, 6:00 AM)30% (Sep 16, 3:30 PM)29.86 "Hg (Sep 30, 2:00 AM)
Average57 °F67%30.10 "Hg
* Reported Sep 15 1:00 PM — Sep 30 1:00 PM, Warsaw, Weather by CustomWeather, © 2016

Note: Actual official high and low records may vary slightly from our data, if they occured in-between our weather recording intervals... More about our weather records

Advertising

Warsaw Weather History for the Previous 24 Hours

Scroll right to see more
 ConditionsComfort  
Time TempWeatherWind HumidityBarometerVisibility
1:00 PM
Fri, Sep 30
72 °FScattered clouds.10 mph53%29.95 "HgN/A
12:30 PM72 °FScattered clouds.14 mph53%29.95 "HgN/A
12:00 PM70 °FPassing clouds.12 mph57%29.95 "HgN/A
11:30 AM70 °FPassing clouds.13 mph57%29.95 "HgN/A
11:00 AM70 °FSunny.14 mph57%29.95 "Hg10 mi
10:30 AM70 °FSunny.14 mph57%29.92 "Hg10 mi
10:00 AM68 °FPassing clouds.14 mph60%29.92 "HgN/A
9:30 AM66 °FSunny.14 mph60%29.92 "Hg10 mi
9:00 AM66 °FSunny.12 mph60%29.92 "Hg10 mi
8:30 AM63 °FSunny.10 mph68%29.89 "Hg10 mi
8:00 AM64 °FSunny.10 mph64%29.89 "Hg10 mi
7:30 AM63 °FSunny.8 mph64%29.89 "Hg10 mi
7:00 AM61 °FSunny.7 mph68%29.86 "Hg10 mi
6:30 AM61 °FClear.7 mph68%29.86 "Hg10 mi
6:00 AM63 °FClear.9 mph64%29.86 "Hg10 mi
5:30 AM63 °FClear.9 mph64%29.86 "Hg10 mi
5:00 AM64 °FClear.9 mph60%29.86 "Hg10 mi
4:30 AM64 °FClear.9 mph60%29.86 "Hg10 mi
4:00 AM64 °FClear.10 mph60%29.86 "Hg10 mi
3:30 AM64 °FClear.9 mph60%29.86 "Hg10 mi
3:00 AM64 °FClear.8 mph60%29.86 "Hg10 mi
2:30 AM61 °FClear.6 mph68%29.86 "Hg10 mi
2:00 AM61 °FClear.7 mph68%29.86 "Hg10 mi
1:30 AM61 °FClear.6 mph68%29.89 "Hg10 mi
1:00 AM63 °FClear.6 mph64%29.89 "Hg10 mi
12:30 AM64 °FClear.6 mph60%29.89 "Hg10 mi
12:00 AM66 °FClear.8 mph60%29.89 "Hg10 mi
11:30 PM
Thu, Sep 29
66 °FClear.7 mph60%29.89 "Hg10 mi
11:00 PM66 °FClear.8 mph60%29.89 "Hg10 mi
10:30 PM66 °FClear.9 mph60%29.89 "Hg10 mi
10:00 PM66 °FClear.10 mph60%29.89 "Hg10 mi
9:30 PM66 °FClear.8 mph60%29.89 "Hg10 mi
9:00 PM63 °FClear.7 mph68%29.92 "Hg10 mi
8:30 PM64 °FClear.7 mph64%29.92 "Hg10 mi
8:00 PM64 °FClear.7 mph68%29.92 "Hg10 mi
7:30 PM66 °FClear.7 mph64%29.92 "Hg10 mi
7:00 PM68 °FClear.7 mph60%29.92 "Hg10 mi
6:30 PM68 °FClear.7 mph60%29.95 "Hg10 mi
6:00 PM72 °FPassing clouds.7 mph57%29.95 "HgN/A
5:30 PM72 °FSunny.8 mph57%29.95 "Hg10 mi
5:00 PM72 °FSunny.8 mph53%29.95 "Hg10 mi
4:30 PM73 °FSunny.9 mph53%29.95 "Hg10 mi
4:00 PM73 °FSunny.12 mph53%29.95 "Hg10 mi
3:30 PM75 °FPassing clouds.10 mph47%29.95 "HgN/A
3:00 PM73 °FScattered clouds.12 mph50%29.98 "HgN/A
2:30 PM73 °FScattered clouds.13 mph50%29.98 "HgN/A
2:00 PM73 °FScattered clouds.10 mph50%30.01 "HgN/A
Weather by CustomWeather, © 2016

See weather overviewHow to use our weather pages